Regional Weather Roundup
Issued by NWS

Home | Current Version | Previous Version | Text Only | Print | Product List | Glossary On
Versions: 1 2 3 4 5 6 7 8 9 10 11 12 13 14 15 16 17 18 19 20 21 22 23 24 25 26 27 28 29 30 31 32 33 34 35 36 37 38 39 40 41 42 43 44 45 46 47 48 49 50
000
ASUS43 KOAX 052210
RWRNE

WEATHER ROUNDUP FOR NEBRASKA
NATIONAL WEATHER SERVICE OMAHA NE
500 PM CDT THU MAY 05 2016

NOTES: SATELLITE DATA IS BEING USED TO AUGMENT CLOUD COVER ABOVE
       12000 FEET.
       "FAIR" INDICATES FEW OR NO CLOUDS BELOW 12,000 FEET WITH NO
       SIGNIFICANT WEATHER AND/OR OBSTRUCTIONS TO VISIBILITY.

  * THESE STATIONS DO NOT REPORT WEATHER SUCH AS RAIN...SNOW OR FOG.

NEZ001>004-019>022-054>056-052300-
NEBRASKA PANHANDLE

CITY           SKY/WX    TMP DP  RH WIND       PRES   REMARKS
SCOTTSBLUFF    CLOUDY    83  39  21 W6        29.96F
ALLIANCE       PTSUNNY   79  43  27 SW5       29.95F
CHADRON        SUNNY     87  37  17 CALM      29.89F
KIMBALL        CLOUDY    79  33  19 S9        30.03F
SIDNEY         SUNNY     83  37  19 SW17      30.01F
$$

NEZ057>060-069>072-079>082-052300-
SOUTHWEST NEBRASKA

CITY           SKY/WX    TMP DP  RH WIND       PRES   REMARKS
NORTH PLATTE   SUNNY     81  47  30 S15G23    29.98F
IMPERIAL       CLOUDY    82  41  23 S15G26    30.00F
MCCOOK         SUNNY     79  49  34 S15       30.00F
OGALLALA       SUNNY     80  41  25 S13G20    29.98F
$$

NEZ005>010-023>029-035>040-094-052300-
NORTH CENTRAL NEBRASKA

CITY           SKY/WX    TMP DP  RH WIND       PRES   REMARKS
VALENTINE      SUNNY     86  38  18 S14G25    29.91F
AINSWORTH      SUNNY     83  43  24 S12G18    29.95F
BROKEN BOW     SUNNY     80  52  37 S15G22    30.00F
O`NEILL        SUNNY     81  44  27 S12       29.98F
ORD            SUNNY     80  46  30 S10       29.98F
THEDFORD       SUNNY     85  46  25 S13G22    29.97F
$$

NEZ041-046>049-061>064-073>077-083>087-052300-
SOUTH CENTRAL NEBRASKA

CITY           SKY/WX    TMP DP  RH WIND       PRES   REMARKS
GRAND ISLAND   SUNNY     81  40  23 S6        30.01F
AURORA         SUNNY     80  35  19 W3        30.01F
HASTINGS       SUNNY     79  40  24 SW7       30.01F
HEBRON         SUNNY     79  35  20 S7        30.02F
HOLDREGE       SUNNY     78  43  28 S12       30.02F
KEARNEY *      SUNNY     79  45  29 SE9       30.02F
YORK           SUNNY     81  32  17 S5        30.01F
$$

NEZ011>018-030>034-042>045-052300-
NORTHEAST NEBRASKA

CITY           SKY/WX    TMP DP  RH WIND       PRES   REMARKS
NORFOLK        SUNNY     80  38  22 S9        29.98F
ALBION         SUNNY     79  39  23 SW3       29.99F
BLAIR          SUNNY     76  39  25 CALM      30.02F
COLUMBUS *     SUNNY     79  36  21 SW9       30.01F
FREMONT        SUNNY     77  41  27 SE6       30.01F
TEKAMAH        SUNNY     77  41  27 SE8       30.00F
WAYNE          SUNNY     79  43  28 S5        29.99F
$$

NEZ050>053-065>068-078-088>093-052300-
SOUTHEAST NEBRASKA

CITY           SKY/WX    TMP DP  RH WIND       PRES   REMARKS
LINCOLN        SUNNY     80  38  22 SE8       30.02F
OMAHA EPPLEY   PTSUNNY   79  38  22 CALM      30.01F
BEATRICE       SUNNY     77  39  25 CALM      30.02F
FALLS CITY     SUNNY     75  40  28 CALM      30.03F
NEBRASKA CITY  SUNNY     74  37  26 CALM      30.03F
PLATTSMOUTH    SUNNY     77  37  23 CALM      30.03S
$$

NEZ044-045-051>053-067-052300-
OMAHA AREA

CITY           SKY/WX    TMP DP  RH WIND       PRES   REMARKS
OMAHA EPPLEY   PTSUNNY   79  38  22 CALM      30.01F
BLAIR          SUNNY     76  39  25 CALM      30.02F
FREMONT        SUNNY     77  41  27 SE6       30.01F
MILLARD        SUNNY     77  37  23 CALM      30.01F
OFFUTT AFB     SUNNY     76  39  27 VRB2      30.01F
PLATTSMOUTH    SUNNY     77  37  23 CALM      30.03S
WAHOO          FAIR      80  35  19 CALM      30.00F
$$



USA.gov is the U.S. government's official web portal to all federal, state and local government web resources and services.